Stations météo

réclame
Mon MeteoGroup
Reims-Prunay, France (7072): Température de l'air & dewpoint: 22.02.2020 19:00:00 - 28.02.2020 19:00:00 (CET)Reims-Prunay, France (7072): Température de l'air 5cm: 22.02.2020 19:00:00 - 28.02.2020 19:00:00 (CET)Reims-Prunay, France (7072): Température de l'air -20cm & Température de l'air -100cm: 22.02.2020 19:00:00 - 28.02.2020 19:00:00 (CET)Reims-Prunay, France (7072): Vitesse du vent & gusts: 22.02.2020 19:00:00 - 28.02.2020 19:00:00 (CET)Reims-Prunay, France (7072): Direction du vent: 22.02.2020 19:00:00 - 28.02.2020 19:00:00 (CET)Reims-Prunay, France (7072): reduced air pressure: 22.02.2020 19:00:00 - 28.02.2020 19:00:00 (CET)Reims-Prunay, France (7072): visibility: 22.02.2020 19:00:00 - 28.02.2020 19:00:00 (CET)Reims-Prunay, France (7072): Ensoleillement: 22.02.2020 19:00:00 - 28.02.2020 19:00:00 (CET)Reims-Prunay, France (7072): Quantités de précipitations: 22.02.2020 19:00:00 - 28.02.2020 19:00:00 (CET)
Date & Time tt [°C] td [°C] tt 5cm [°C] tt -20cm [°C] tt -100cm [°C] ff [km/h] ff [knt] fx [km/h] fx [knt] dd ppp [hPa] vv [km] sd [min] rr [mm]
28.02.2020 19:00:00 7,4 2,3 5,0 5,7 8,3 21 11 43 23 S 1010,6 20 0 0,2
28.02.2020 18:00:00 7,3 1,6 5,3 5,6 8,4 24 13 48 26 S 1011,3 20 0 0,0
28.02.2020 17:00:00 7,4 1,7 5,9 5,5 8,3 22 12 42 23 S 1012,3 20 0 0,0
28.02.2020 16:00:00 7,2 1,5 6,2 5,4 8,4 24 13 40 21 SSE 1013,5 20 0 0,0
28.02.2020 15:00:00 7,0 1,1 6,3 5,2 8,3 22 12 37 20 S 1015,2 20 0 0,0
28.02.2020 14:00:00 7,1 1,2 7,6 5,1 8,4 24 13 49 26 S 1016,3 20 0 0,0
28.02.2020 13:00:00 6,9 1,4 8,1 5,0 8,3 14 8 34 18 S 1017,6 20 2 0,0
28.02.2020 12:00:00 6,3 1,8 7,2 5,0 8,4 23 13 36 19 S 1018,8 20 50 0,0
28.02.2020 11:00:00 4,7 1,9 3,9 5,1 8,4 17 9 28 15 S 1019,5 20 24 0,0
28.02.2020 10:00:00 2,7 1,1 2,2 5,2 8,4 13 7 19 10 S 1020,0 20 58 0,0
28.02.2020 09:00:00 0,6 0,0 -1,3 5,2 8,4 9 5 13 7 ESE 1020,6 10 51 0,0
28.02.2020 08:00:00 -1,3 -1,7 -6,2 5,3 8,4 9 5 11 6 ENE 1020,2 13 7 0,0
28.02.2020 07:00:00 -2,9 -3,9 -6,0 5,4 8,4 6 3 11 6 E 1020,0 20 0 0,0
28.02.2020 06:00:00 -2,3 -3,1 -5,6 5,5 8,4 2 1 6 3 N 1020,2 18 0 0,0
28.02.2020 05:00:00 -1,4 -2,2 -5,5 5,6 8,4 3 1 7 4 ENE 1019,7 19 0 0,0
28.02.2020 04:00:00 -1,3 -2,1 -5,2 5,7 8,4 0 0 7 4 N 1019,1 20 0 0,0
28.02.2020 03:00:00 -0,9 -2,0 -4,6 5,8 8,4 3 2 7 4 N 1018,7 20 0 0,0
28.02.2020 02:00:00 0,6 -1,2 -2,0 5,8 8,4 3 2 14 7 WNW 1018,6 20 0 0,0
28.02.2020 01:00:00 2,0 -0,6 -0,1 5,9 8,4 9 5 15 8 W 1017,6 20 0 0,0
28.02.2020 00:00:00 2,3 -0,3 0,6 6,0 8,4 10 5 20 11 W 1016,4 20 0 0,0
27.02.2020 23:00:00 2,4 -0,4 0,5 6,0 8,4 9 5 17 9 WNW 1015,2 20 0 0,0
27.02.2020 22:00:00 3,3 0,2 1,8 6,0 8,4 12 6 28 15 W 1014,0 20 0 0,0
27.02.2020 21:00:00 4,0 0,3 2,9 6,1 8,4 16 9 42 23 WNW 1012,0 20 0 0,0
27.02.2020 20:00:00 4,5 0,3 3,5 6,1 8,4 29 16 51 28 NW 1010,1 20 0 0,0
27.02.2020 19:00:00 4,5 1,2 3,4 6,1 8,4 35 19 59 32 NW 1007,5 20 0 0,0
27.02.2020 18:00:00 4,3 2,0 3,4 6,1 8,4 34 18 70 38 NW 1004,2 20 0 0,0
27.02.2020 17:00:00 4,0 0,9 3,6 6,0 8,4 42 23 80 43 NW 1001,3 20 0 0,0
27.02.2020 16:00:00 4,2 0,7 4,3 6,0 8,4 58 31 87 47 NW 997,5 20 4 0,0
27.02.2020 15:00:00 6,7 3,8 6,2 6,0 8,4 58 31 88 48 NW 992,1 11 0 0,6
27.02.2020 14:00:00 7,3 6,6 5,2 6,1 8,4 23 13 47 26 SW 988,7 16 17 0,4
27.02.2020 13:00:00 4,2 4,1 0,1 6,2 8,4 13 7 31 17 SSW 990,2 16 5 1,6
27.02.2020 12:00:00 1,0 0,7 0,1 6,3 8,4 24 13 49 26 ESE 992,6 8 0 2,3
27.02.2020 11:00:00 0,5 0,2 0,1 6,4 8,4 14 8 38 21 ESE 995,1 2,4 0 1,8
27.02.2020 10:00:00 0,5 0,1 0,1 6,4 8,4 27 15 43 23 SE 997,7 3,3 0 2,0
27.02.2020 09:00:00 2,2 1,3 1,6 6,5 8,4 26 14 37 20 SSE 1001,0 6 0 1,4
27.02.2020 08:00:00 2,0 1,1 1,5 6,5 8,4 22 12 31 17 SSE 1003,2 11 0 0,6
27.02.2020 07:00:00 2,5 0,9 1,6 6,6 8,4 18 10 35 19 SSE 1004,8 20 0 0,0
27.02.2020 06:00:00 2,0 0,7 1,1 6,6 8,4 11 6 19 10 ESE 1006,6 20 0 0,0
27.02.2020 05:00:00 2,5 0,2 1,5 6,7 8,4 6 3 17 9 SSE 1007,6 20 0 0,0
27.02.2020 04:00:00 3,1 0,3 2,1 6,8 8,4 12 7 24 13 SW 1008,7 20 0 0,0
27.02.2020 03:00:00 3,6 0,6 2,3 6,8 8,4 17 9 27 15 WSW 1009,9 20 0 0,0
27.02.2020 02:00:00 3,5 0,5 0,6 7,0 8,4 10 6 17 9 W 1010,7 20 0 0,0
27.02.2020 01:00:00 3,5 0,5 1,9 7,0 8,4 13 7 23 12 W 1010,8 20 0 0,0
27.02.2020 00:00:00 3,2 0,6 1,6 7,1 8,4 13 7 22 12 W 1011,2 20 0 0,0
26.02.2020 23:00:00 3,4 0,6 0,8 7,3 8,4 10 6 21 11 W 1011,2 20 0 0,0
26.02.2020 22:00:00 3,7 0,9 0,8 7,3 8,4 9 5 19 10 W 1011,4 20 0 0,0
26.02.2020 21:00:00 3,2 0,4 1,3 7,4 8,4 8 5 21 12 W 1010,9 20 0 0,0
26.02.2020 20:00:00 3,7 0,9 2,0 7,5 8,4 13 7 24 13 W 1010,6 20 0 0,0
26.02.2020 19:00:00 4,3 1,2 2,9 7,5 8,4 13 7 37 20 W 1010,1 20 0 0,0
26.02.2020 18:00:00 4,9 0,7 3,7 7,5 8,4 18 10 46 25 W 1009,1 20 2 0,0
26.02.2020 17:00:00 6,7 -0,1 6,2 7,4 8,4 16 9 41 22 WNW 1008,3 20 26 0,0
26.02.2020 16:00:00 6,0 0,9 4,1 7,4 8,3 15 8 26 14 WNW 1007,8 20 31 0,0
26.02.2020 15:00:00 4,4 1,6 3,8 7,3 8,3 19 11 52 28 WNW 1007,5 20 3 0,0
26.02.2020 14:00:00 6,9 0,3 5,6 7,3 8,3 21 11 51 28 WNW 1006,3 20 27 0,0
26.02.2020 13:00:00 5,7 0,8 6,2 7,3 8,3 21 12 41 22 W 1006,2 20 17 0,0
26.02.2020 12:00:00 5,0 0,7 5,8 7,3 8,3 24 13 50 27 W 1006,0 20 29 0,0
26.02.2020 11:00:00 4,3 1,2 2,5 7,4 8,3 24 13 42 23 W 1005,1 20 31 0,0
26.02.2020 10:00:00 2,7 0,9 2,6 7,5 8,3 17 9 46 25 W 1004,3 20 0 0,0
26.02.2020 09:00:00 3,0 0,9 1,7 7,6 8,3 23 13 36 19 W 1003,1 20 56 0,0
26.02.2020 08:00:00 2,0 0,4 0,3 7,7 8,3 19 10 34 18 W 1002,3 20 3 0,0
26.02.2020 07:00:00 1,7 0,1 0,6 7,8 8,3 21 11 38 21 W 1001,4 20 0 0,0
26.02.2020 06:00:00 1,4 0,5 0,4 7,9 8,3 16 9 47 26 W 1001,3 20 0 0,8
26.02.2020 05:00:00 2,4 0,6 1,7 8,1 8,3 28 15 48 26 W 1001,0 20 0 0,0
26.02.2020 04:00:00 2,9 0,8 1,8 8,2 8,3 18 10 45 24 W 1000,8 20 0 0,0
26.02.2020 03:00:00 4,1 0,2 3,0 8,3 8,3 24 13 49 27 W 1001,0 20 0 0,0
26.02.2020 02:00:00 4,4 0,7 3,6 8,4 8,3 28 15 54 29 W 1001,1 20 0 0,0
26.02.2020 01:00:00 4,7 1,2 3,8 8,5 8,3 29 16 58 31 W 1000,8 20 0 0,0
26.02.2020 00:00:00 4,9 1,6 3,7 8,6 8,3 23 13 46 25 WSW 1000,6 20 0 0,0
25.02.2020 23:00:00 4,4 1,9 3,5 8,7 8,2 20 11 39 21 W 1000,5 20 0 0,0
25.02.2020 22:00:00 5,0 2,0 3,8 8,8 8,3 21 11 74 40 WSW 1000,5 20 0 0,2
25.02.2020 21:00:00 5,8 2,8 3,8 8,9 8,3 16 9 26 14 SW 1000,9 20 0 0,0
25.02.2020 20:00:00 6,1 2,9 4,1 9,0 8,2 12 7 34 19 W 1001,2 20 0 0,0
25.02.2020 19:00:00 6,6 3,7 5,0 9,0 8,2 20 11 40 21 W 1002,0 20 0 0,0
25.02.2020 18:00:00 6,6 3,7 5,4 9,0 8,2 16 9 33 18 WSW 1002,1 20 0 0,6
25.02.2020 17:00:00 7,6 5,1 6,3 8,9 8,2 12 7 42 23 WSW 1002,6 20 2 0,2
25.02.2020 16:00:00 8,6 4,8 8,6 8,9 8,2 18 10 37 20 WSW 1003,2 20 20 0,0
25.02.2020 15:00:00 9,1 4,5 9,5 8,8 8,2 28 15 49 26 WSW 1004,1 20 27 0,0
25.02.2020 14:00:00 10,9 3,4 9,9 8,8 8,2 26 14 44 24 WSW 1004,7 20 13 0,0
25.02.2020 13:00:00 9,8 3,7 9,2 8,7 8,2 21 12 39 21 W 1005,7 20 22 0,0
25.02.2020 12:00:00 9,0 3,8 8,6 8,7 8,2 24 13 42 23 W 1006,4 20 28 0,0
25.02.2020 11:00:00 8,6 5,2 8,6 8,7 8,2 23 13 38 20 W 1006,7 20 28 0,0
25.02.2020 10:00:00 8,8 5,7 7,7 8,8 8,2 17 9 28 15 W 1007,0 20 15 0,0
25.02.2020 09:00:00 7,7 6,2 6,8 8,8 8,2 11 6 34 18 W 1007,1 20 0 0,6
25.02.2020 08:00:00 7,6 5,9 6,9 8,8 8,2 16 8 30 16 WNW 1007,2 9 0 0,4
25.02.2020 07:00:00 8,6 7,5 8,1 8,8 8,2 17 9 34 19 WNW 1007,2 2,1 0 1,0
25.02.2020 06:00:00 9,2 7,8 8,2 8,8 8,2 21 11 33 18 WSW 1006,8 18 0 0,6
25.02.2020 05:00:00 9,1 7,7 8,2 8,8 8,2 19 11 32 18 WSW 1007,2 16 0 0,8
25.02.2020 04:00:00 9,1 7,5 8,2 8,9 8,2 22 12 38 21 WSW 1008,0 16 0 0,6
25.02.2020 03:00:00 9,2 7,5 8,3 8,9 8,2 24 13 39 21 WSW 1008,8 11 0 0,2
25.02.2020 02:00:00 9,4 7,5 8,4 8,9 8,2 22 12 40 21 WSW 1009,5 20 0 0,2
25.02.2020 01:00:00 9,9 7,5 9,6 8,9 8,2 25 14 53 29 WSW 1010,1 20 0 0,0
25.02.2020 00:00:00 10,3 7,4 9,9 8,9 8,1 29 16 45 24 WSW 1010,7 20 0 0,0
24.02.2020 23:00:00 10,6 7,5 9,6 9,0 8,2 24 13 48 26 WSW 1011,4 20 0 0,0
24.02.2020 22:00:00 11,3 7,2 10,7 9,0 8,2 26 14 49 27 WSW 1011,9 20 0 0,0
24.02.2020 21:00:00 11,5 7,2 10,7 9,0 8,2 26 14 41 22 WSW 1012,3 20 0 0,0
24.02.2020 20:00:00 11,5 7,8 10,7 8,9 8,2 18 10 34 19 SW 1012,9 20 0 0,0
24.02.2020 19:00:00 11,7 7,4 11,0 9,0 8,2 21 11 39 21 SW 1013,5 20 0 0,0
24.02.2020 18:00:00 11,7 7,2 11,1 8,9 8,2 20 11 49 26 WSW 1013,9 20 0 0,0
24.02.2020 17:00:00 11,9 7,2 11,5 8,8 8,2 29 15 51 28 WSW 1014,0 20 1 0,0
24.02.2020 16:00:00 12,2 7,7 12,3 8,7 8,2 30 16 55 30 WSW 1014,5 20 6 0,0
24.02.2020 15:00:00 12,3 8,6 12,6 8,6 8,2 31 17 50 27 SW 1015,8 20 13 0,0
24.02.2020 14:00:00 12,1 8,8 13,0 8,5 8,1 29 16 58 31 SW 1016,7 20 18 0,0
24.02.2020 13:00:00 11,8 8,8 12,3 8,4 8,1 39 21 57 31 SW 1017,5 20 21 0,0
24.02.2020 12:00:00 11,2 9,3 10,5 8,4 8,2 31 17 51 28 SW 1018,9 20 0 0,0
24.02.2020 11:00:00 10,9 9,2 10,3 8,3 8,2 24 13 46 25 SW 1019,9 20 0 0,0
24.02.2020 10:00:00 10,8 9,4 10,4 8,3 8,2 16 9 36 19 SW 1020,8 20 0 0,0
24.02.2020 09:00:00 10,4 9,3 8,3 8,3 8,1 17 9 28 15 WSW 1021,4 20 0 0,0
24.02.2020 08:00:00 8,4 8,3 7,3 8,4 8,2 4 2 15 8 SE 1022,5 11 0 0,0
24.02.2020 07:00:00 7,6 7,5 6,8 8,4 8,2 10 6 18 10 ESE 1023,0 6 0 0,0
24.02.2020 06:00:00 6,9 6,6 6,7 8,4 8,1 10 6 13 7 ESE 1023,9 3,4 0 0,2
24.02.2020 05:00:00 7,0 6,7 6,7 8,5 8,2 9 5 11 6 SE 1024,7 7 0 0,0
24.02.2020 04:00:00 7,0 6,6 6,7 8,5 8,2 6 3 8 5 SSE 1025,3 2,9 0 0,4
24.02.2020 03:00:00 7,3 6,1 6,6 8,5 8,1 0 0 9 5 N 1026,1 3,1 0 0,2
24.02.2020 02:00:00 8,2 5,7 7,2 8,5 8,1 3 2 9 5 SW 1026,4 20 0 0,0
24.02.2020 01:00:00 8,9 5,1 7,5 8,5 8,1 4 2 18 10 NNW 1026,5 20 0 0,0
24.02.2020 00:00:00 9,1 7,2 8,2 8,4 8,2 7 4 28 15 NNW 1026,2 20 0 0,0
23.02.2020 23:00:00 10,3 8,2 9,2 8,4 8,1 21 11 44 24 NW 1025,8 20 0 1,6
23.02.2020 22:00:00 11,9 11,0 11,2 8,4 8,2 13 7 29 15 WNW 1024,9 18 0 0,0
23.02.2020 21:00:00 11,7 11,1 11,2 8,3 8,2 15 8 39 21 W 1024,2 3,1 0 1,4
23.02.2020 20:00:00 12,0 10,9 11,2 8,2 8,2 22 12 43 23 W 1023,7 6 0 0,0
23.02.2020 19:00:00 12,0 10,6 11,0 8,1 8,2 23 12 40 22 WSW 1022,9 20 0 0,0
23.02.2020 18:00:00 12,2 10,3 11,3 8,0 8,1 26 14 52 28 W 1022,3 9 0 0,0
23.02.2020 17:00:00 12,5 9,9 12,2 8,0 8,2 29 15 53 29 WSW 1021,7 20 0 0,0
23.02.2020 16:00:00 12,5 9,7 11,9 7,9 8,2 29 16 51 27 WSW 1021,4 20 0 0,0
23.02.2020 15:00:00 12,0 9,4 11,5 7,9 8,2 32 17 53 29 WSW 1021,5 20 0 0,0
23.02.2020 14:00:00 11,7 9,1 11,4 7,8 8,2 34 18 58 31 WSW 1021,9 20 0 0,0
23.02.2020 13:00:00 11,4 8,6 11,3 7,7 8,2 28 15 52 28 SW 1022,2 20 0 0,0
23.02.2020 12:00:00 11,4 8,4 11,1 7,7 8,1 35 19 60 32 SW 1022,8 20 0 0,0
23.02.2020 11:00:00 11,1 8,5 10,4 7,7 8,2 28 15 45 25 SW 1022,8 20 0 0,0
23.02.2020 10:00:00 10,5 8,3 9,9 7,7 8,2 25 14 42 23 SW 1023,0 20 0 0,0
23.02.2020 09:00:00 9,9 7,8 9,4 7,6 8,2 27 15 46 25 SW 1022,8 20 0 0,0
23.02.2020 08:00:00 9,7 7,6 9,3 7,6 8,1 25 14 45 25 SW 1023,3 20 0 0,0
23.02.2020 07:00:00 9,7 7,6 9,3 7,6 8,2 26 14 45 24 SW 1023,4 20 0 0,0
23.02.2020 06:00:00 9,8 7,7 9,4 7,6 8,2 24 13 37 20 SW 1024,4 20 0 0,0
23.02.2020 05:00:00 10,0 7,8 9,3 7,5 8,2 21 11 38 21 WSW 1025,5 20 0 0,0
23.02.2020 04:00:00 10,0 7,6 9,4 7,5 8,2 21 11 32 18 SW 1025,4 20 0 0,0
23.02.2020 03:00:00 10,2 8,0 9,5 7,4 8,2 18 10 29 16 SW 1026,3 20 0 0,0
23.02.2020 02:00:00 10,6 8,2 9,4 7,4 8,2 14 8 27 15 WSW 1027,3 20 0 0,0
23.02.2020 01:00:00 11,3 8,0 9,9 7,4 8,2 15 8 34 19 WSW 1027,8 20 0 0,0
23.02.2020 00:00:00 11,4 7,9 10,7 7,3 8,2 20 11 34 19 WSW 1027,7 20 0 0,0
22.02.2020 23:00:00 11,6 7,9 10,5 7,3 8,2 18 10 32 17 SW 1027,7 20 0 0,0
22.02.2020 22:00:00 11,5 8,0 10,6 7,2 8,2 19 10 34 18 SW 1027,9 20 0 0,0
22.02.2020 21:00:00 11,5 7,8 10,5 7,1 8,2 18 10 29 16 WSW 1028,1 20 0 0,0
22.02.2020 20:00:00 11,3 7,8 10,6 7,1 8,2 18 10 37 20 WSW 1027,9 20 0 0,0
22.02.2020 19:00:00 11,5 7,4 10,8 7,0 8,2 22 12 42 23 WSW 1027,5 20 0 0,0

tt = Température de l'air
td = dewpoint
tt 5cm = Température de l'air 5cm
tt -20cm = Température de l'air -20cm
tt -100cm = Température de l'air -100cm
ff = Vitesse du vent
fx = gusts
dd = Direction du vent
ppp = reduced air pressure
vv = visibility
sd = Ensoleillement
rr = Quantités de précipitations

stations d'obs. à proximité